Location: Ferchesar
(52.6477°N, 12.4298°E)
Time: 09:36:43
(UTC+01:00)

S-56A Canister/Altair - Pass Details

Date: 09 December 2021
Orbit: 633 x 2499 km, 38.9° (Epoch: 19 January)

Event Time Altitude Azimuth Distance (km) Brightness Sun altitude
Rises 03:38:51 0° 265° (W) 4,350 - -39.5°
Reaches altitude 10° 03:44:13 10° 239° (WSW) 2,915 - -38.7°
Maximum altitude 03:46:43 12° 217° (SW) 2,549 - -38.4°
Drops below altitude 10° 03:48:58 10° 195° (SSW) 2,532 - -38.0°
Sets 03:52:50 0° 164° (SSE) 3,195 - -37.5°
